Tiempo cada hora Abella de la Conca

Hoy, 23 Octubre, Viernes

Tiempo Temperatura Precipitaciones Viento Presión Humedad
00:00 +10°C° 0 mm 1 mps 654 mmHg 96%
01:00 +10°C° 0.3 mm 1 mps 654 mmHg 96%
02:00 +10°C° 0.3 mm 1 mps 654 mmHg 96%
03:00 +10°C° 0.3 mm 1 mps 654 mmHg 96%
04:00 +10°C° 0.1 mm 1 mps 654 mmHg 96%
05:00 +9°C° 0.1 mm 1 mps 654 mmHg 96%
06:00 +9°C° 0.1 mm 1 mps 654 mmHg 96%
07:00 +10°C° 0 mm 1 mps 654 mmHg 90%
08:00 +10°C° 0 mm 2 mps 655 mmHg 84%
09:00 +12°C° 0 mm 2 mps 656 mmHg 78%
10:00 +12°C° 0 mm 2 mps 656 mmHg 71%
11:00 +13°C° 0 mm 2 mps 656 mmHg 64%
12:00 +14°C° 0 mm 2 mps 657 mmHg 57%
13:00 +8°C° 0.1 mm 1 mps 657 mmHg 75%
14:00 +10°C° 0.1 mm 2 mps 657 mmHg 69%
15:00 +13°C° 0.1 mm 3 mps 657 mmHg 62%
16:00 +12°C° 0.1 mm 2 mps 657 mmHg 68%
17:00 +10°C° 0.1 mm 2 mps 656 mmHg 73%
18:00 +9°C° 0.1 mm 1 mps 656 mmHg 78%
19:00 +9°C° 0.2 mm 1 mps 657 mmHg 80%
20:00 +8°C° 0.2 mm 1 mps 657 mmHg 81%
21:00 +8°C° 0.2 mm 1 mps 657 mmHg 82%
22:00 +7°C° 0 mm 1 mps 657 mmHg 82%
23:00 +6°C° 0 mm 2 mps 657 mmHg 83%

Mañana, 24 Octubre, Sábado

Tiempo Temperatura Precipitaciones Viento Presión Humedad
00:00 +6°C° 0 mm 2 mps 657 mmHg 83%
01:00 +5°C° 0 mm 2 mps 657 mmHg 83%
02:00 +6°C° 0 mm 1 mps 657 mmHg 82%
03:00 +6°C° 0 mm 1 mps 657 mmHg 82%
04:00 +5°C° 0 mm 1 mps 657 mmHg 81%
05:00 +5°C° 0 mm 1 mps 657 mmHg 81%
06:00 +5°C° 0 mm 1 mps 657 mmHg 80%
07:00 +7°C° 0 mm 1 mps 657 mmHg 74%
08:00 +9°C° 0 mm 1 mps 658 mmHg 68%
09:00 +10°C° 0 mm 0 mps 658 mmHg 62%
10:00 +12°C° 0 mm 1 mps 659 mmHg 58%
11:00 +13°C° 0 mm 1 mps 659 mmHg 54%
12:00 +14°C° 0 mm 2 mps 659 mmHg 50%
13:00 +14°C° 0 mm 2 mps 658 mmHg 50%
14:00 +14°C° 0 mm 2 mps 658 mmHg 49%
15:00 +14°C° 0 mm 2 mps 657 mmHg 49%
16:00 +12°C° 0 mm 2 mps 656 mmHg 57%
17:00 +10°C° 0 mm 1 mps 656 mmHg 65%
18:00 +7°C° 0 mm 0 mps 655 mmHg 72%
19:00 +7°C° 0 mm 1 mps 655 mmHg 73%
20:00 +7°C° 0 mm 1 mps 655 mmHg 75%
21:00 +7°C° 0 mm 1 mps 655 mmHg 76%
22:00 +6°C° 0 mm 1 mps 654 mmHg 76%
23:00 +6°C° 0 mm 1 mps 654 mmHg 77%

Pasado mañana, 25 Octubre, Domingo

Tiempo Temperatura Precipitaciones Viento Presión Humedad
00:00 +6°C° 0 mm 1 mps 654 mmHg 78%
01:00 +6°C° 0 mm 1 mps 653 mmHg 78%
02:00 +5°C° 0 mm 1 mps 653 mmHg 79%
03:00 +5°C° 0 mm 1 mps 653 mmHg 80%
04:00 +5°C° 0 mm 1 mps 652 mmHg 81%
05:00 +5°C° 0 mm 1 mps 652 mmHg 81%
06:00 +5°C° 0 mm 1 mps 651 mmHg 81%
07:00 +7°C° 0 mm 1 mps 652 mmHg 73%
08:00 +9°C° 0 mm 1 mps 652 mmHg 65%
09:00 +11°C° 0 mm 1 mps 653 mmHg 58%
10:00 +12°C° 0 mm 2 mps 653 mmHg 55%
11:00 +13°C° 0 mm 2 mps 652 mmHg 52%
12:00 +13°C° 0 mm 3 mps 652 mmHg 49%
13:00 +13°C° 0 mm 3 mps 652 mmHg 50%
14:00 +13°C° 0 mm 3 mps 651 mmHg 52%
15:00 +12°C° 0 mm 3 mps 651 mmHg 53%
16:00 +11°C° 0.1 mm 3 mps 650 mmHg 61%
17:00 +9°C° 0.1 mm 2 mps 650 mmHg 69%
18:00 +9°C° 0.1 mm 1 mps 650 mmHg 77%
19:00 +9°C° 0.2 mm 1 mps 650 mmHg 80%
20:00 +7°C° 0.2 mm 2 mps 650 mmHg 83%
21:00 +7°C° 0.2 mm 2 mps 650 mmHg 86%
22:00 +6°C° 0.1 mm 2 mps 650 mmHg 88%
23:00 +5°C° 0.1 mm 2 mps 649 mmHg 90%

, 26 Octubre, Lunes

Tiempo Temperatura Precipitaciones Viento Presión Humedad
00:00 +4°C° 0.1 mm 2 mps 649 mmHg 92%
01:00 +3°C° 0.1 mm 2 mps 649 mmHg 92%
02:00 +3°C° 0.1 mm 2 mps 648 mmHg 92%
03:00 +3°C° 0.1 mm 1 mps 648 mmHg 92%
04:00 +2°C° 0.2 mm 2 mps 648 mmHg 91%
05:00 +2°C° 0.2 mm 2 mps 648 mmHg 90%
06:00 +1°C° 0.2 mm 2 mps 648 mmHg 90%
07:00 +3°C° 0 mm 2 mps 649 mmHg 82%
08:00 +4°C° 0 mm 2 mps 649 mmHg 75%
09:00 +5°C° 0 mm 2 mps 650 mmHg 68%
10:00 +6°C° 0.1 mm 2 mps 650 mmHg 63%
11:00 +7°C° 0.1 mm 2 mps 650 mmHg 58%
12:00 +8°C° 0.1 mm 3 mps 651 mmHg 54%
13:00 +8°C° 0.2 mm 3 mps 651 mmHg 53%
14:00 +8°C° 0.2 mm 3 mps 651 mmHg 53%
15:00 +8°C° 0.2 mm 3 mps 651 mmHg 53%
16:00 +5°C° 0 mm 3 mps 651 mmHg 59%
17:00 +3°C° 0 mm 3 mps 650 mmHg 66%
18:00 +2°C° 0 mm 2 mps 650 mmHg 72%
19:00 +2°C° 0 mm 2 mps 650 mmHg 73%
20:00 +1°C° 0 mm 2 mps 650 mmHg 73%
21:00 +1°C° 0 mm 2 mps 651 mmHg 74%
22:00 -1°C° 0 mm 2 mps 651 mmHg 75%
23:00 -1°C° 0 mm 2 mps 651 mmHg 75%

26 Octubre, Lunes

Tiempo Temperatura Precipitaciones Viento Presión Humedad
00:00 +4°C° 0.1 mm 2 mps 649 mmHg 92%
01:00 +3°C° 0.1 mm 2 mps 649 mmHg 92%
02:00 +3°C° 0.1 mm 2 mps 648 mmHg 92%
03:00 +3°C° 0.1 mm 1 mps 648 mmHg 92%
04:00 +2°C° 0.2 mm 2 mps 648 mmHg 91%
05:00 +2°C° 0.2 mm 2 mps 648 mmHg 90%
06:00 +1°C° 0.2 mm 2 mps 648 mmHg 90%
07:00 +3°C° 0 mm 2 mps 649 mmHg 82%
08:00 +4°C° 0 mm 2 mps 649 mmHg 75%
09:00 +5°C° 0 mm 2 mps 650 mmHg 68%
10:00 +6°C° 0.1 mm 2 mps 650 mmHg 63%
11:00 +7°C° 0.1 mm 2 mps 650 mmHg 58%
12:00 +8°C° 0.1 mm 3 mps 651 mmHg 54%
13:00 +8°C° 0.2 mm 3 mps 651 mmHg 53%
14:00 +8°C° 0.2 mm 3 mps 651 mmHg 53%
15:00 +8°C° 0.2 mm 3 mps 651 mmHg 53%
16:00 +5°C° 0 mm 3 mps 651 mmHg 59%
17:00 +3°C° 0 mm 3 mps 650 mmHg 66%
18:00 +2°C° 0 mm 2 mps 650 mmHg 72%
19:00 +2°C° 0 mm 2 mps 650 mmHg 73%
20:00 +1°C° 0 mm 2 mps 650 mmHg 73%
21:00 +1°C° 0 mm 2 mps 651 mmHg 74%
22:00 -1°C° 0 mm 2 mps 651 mmHg 75%
23:00 -1°C° 0 mm 2 mps 651 mmHg 75%

27 Octubre, Martes

Tiempo Temperatura Precipitaciones Viento Presión Humedad
00:00 -1°C° 0 mm 2 mps 651 mmHg 76%
01:00 -1°C° 0 mm 2 mps 651 mmHg 76%
02:00 -1°C° 0 mm 2 mps 651 mmHg 76%
03:00 -1°C° 0 mm 2 mps 650 mmHg 77%
04:00 -2°C° 0 mm 2 mps 651 mmHg 77%
05:00 -2°C° 0 mm 2 mps 651 mmHg 77%
06:00 -2°C° 0 mm 2 mps 651 mmHg 77%
07:00 +1°C° 0 mm 2 mps 652 mmHg 70%
08:00 +3°C° 0 mm 2 mps 653 mmHg 63%
09:00 +6°C° 0 mm 1 mps 654 mmHg 56%
10:00 +7°C° 0 mm 2 mps 654 mmHg 50%
11:00 +8°C° 0 mm 2 mps 654 mmHg 44%
12:00 +9°C° 0 mm 2 mps 655 mmHg 39%
13:00 +9°C° 0 mm 2 mps 655 mmHg 39%
14:00 +9°C° 0 mm 2 mps 655 mmHg 40%
15:00 +9°C° 0 mm 2 mps 654 mmHg 40%
16:00 +7°C° 0 mm 2 mps 654 mmHg 48%
17:00 +6°C° 0 mm 2 mps 654 mmHg 56%
18:00 +4°C° 0 mm 2 mps 653 mmHg 64%
19:00 +3°C° 0 mm 2 mps 654 mmHg 65%
20:00 +3°C° 0 mm 2 mps 654 mmHg 66%
21:00 +3°C° 0 mm 2 mps 654 mmHg 67%
22:00 +3°C° 0 mm 2 mps 654 mmHg 67%
23:00 +4°C° 0 mm 1 mps 654 mmHg 68%

28 Octubre, Miércoles

Tiempo Temperatura Precipitaciones Viento Presión Humedad
00:00 +4°C° 0 mm 1 mps 654 mmHg 68%
01:00 +4°C° 0 mm 1 mps 654 mmHg 69%
02:00 +4°C° 0 mm 1 mps 654 mmHg 70%
03:00 +4°C° 0 mm 1 mps 654 mmHg 71%
04:00 +4°C° 0 mm 1 mps 654 mmHg 73%
05:00 +4°C° 0 mm 1 mps 654 mmHg 74%
06:00 +4°C° 0 mm 1 mps 654 mmHg 75%
07:00 +6°C° 0 mm 1 mps 655 mmHg 69%
08:00 +8°C° 0 mm 1 mps 656 mmHg 62%
09:00 +9°C° 0 mm 0 mps 657 mmHg 55%
10:00 +11°C° 0 mm 1 mps 658 mmHg 52%
11:00 +13°C° 0 mm 1 mps 658 mmHg 49%
12:00 +14°C° 0 mm 2 mps 659 mmHg 46%
13:00 +14°C° 0 mm 2 mps 658 mmHg 47%
14:00 +13°C° 0 mm 2 mps 658 mmHg 48%
15:00 +13°C° 0 mm 2 mps 658 mmHg 49%
16:00 +11°C° 0 mm 1 mps 658 mmHg 57%
17:00 +9°C° 0 mm 1 mps 657 mmHg 64%
18:00 +6°C° 0 mm 0 mps 657 mmHg 71%
19:00 +6°C° 0 mm 0 mps 657 mmHg 72%
20:00 +7°C° 0 mm 1 mps 658 mmHg 74%
21:00 +7°C° 0 mm 1 mps 658 mmHg 76%
22:00 +6°C° 0 mm 1 mps 658 mmHg 77%
23:00 +6°C° 0 mm 1 mps 658 mmHg 78%
Mostrar más

Necesitamos Su Consentimiento

Meteoprog y nuestros Proveedores de Servicios pueden almacenar y acceder a sus datos personales como cookies, identificadores de dispositivo u otras tecnologías similares de su dispositivo y procesar dichos datos para personalizar contenido y anuncios, además de ofrecer funciones de redes sociales y analizar el tráfico.

  • Almacenar y/o acceder a información en su dispositivo

    Se puede almacenar o acceder a cookies, identificadores de dispositivo u otra información de su dispositivo para los fines anteriormente indicados.

  • Anuncios y contenido personalizados, medición de anuncios y contenido, percepciones del público, y desarrollo de productos

    Los anuncios y el contenido pueden personalizarse en base a su perfil. Se pueden añadir más datos para personalizar mejor los anuncios y contenidos. Se puede medir el rendimiento de los anuncios y contenidos. Se puede obtener la percepción sobre el público que ha visto los anuncios y contenidos. Dichos datos pueden usarse para desarrollar o mejorar la experiencia del usuario, sistemas y software.

Al hacer clic en ‘Estoy De Acuerdo’ usted permitirá el uso de las cookies, identificadores de dispositivo, balizas web u otras tecnologías similares indicadas. Su configuración puede cambiarse desde el navegador de su dispositivo.

Para ciertos fines, los intereses legítimos pueden ser considerados por encima del consentimiento. Puede leer más sobre ello en nuestra Política de Privacidad y Cookies.